NOAA 16 DEB, 41256

Orbit data source: Space-Track

NOAA 16 DEB, 41256 is space debris in SSO originally from a launch on Thu, 21 Sep 2000 UTC launched from the Air Force Western Test Range (AFWTR). Debris objects in space refer to the collection of defunct objects orbiting the Earth. Examples of debris include non-operational satellites, rocket bodies, and fragments generated from explosions, collisions, or faulty payload assembly.

Loading next visibility...
Identifier
41256, 2000-055FG
Orbit
SSO
Country
Flag of USUS
Related business
Manufacturer
Unknown
Mission
Spacecraft
Bus & Motor
Unknown
Mass
Unknown
Launch date (UTC)
2000-09-21 (25 years ago)
Launch vehicle
Unknown
Launch site
Air Force Western Test Range (AFWTR)
Object type
Payload
Rocket body
Debris
Shape & HBR
Unknown shape, 0.1 m
Radar Cross Section
Small (<0.1 m²)

Expand to show TLE details & history
Last TLE update: 12 hours ago

TLE from 12 hours ago
0 NOAA 16 DEB
1 41256U 00055FG  25292.93381117  .00021808  00000-0  55271-2 0  9992
2 41256  99.0936 175.5821 0012496 141.2430 218.9661 14.50797588509250
Epoch: 2025-10-19T22:24Z
TLE epoch observation values (Epoch: 2025-10-19T22:24:41.285Z)
Latitude
0.00001°
Longitude
170.76672°
Altitude
732.894 km
Speed
7.485 km/s
True Right ascension
11h 42m 19s
True Declination
0° 00' 00"
Sunlit
Object was in daylight at epoch
Visualization orbit readout
Latitude
Unknown
Longitude
Unknown
Altitude
Unknown
Speed
Unknown
Apparent Right ascension
Unknown
Apparent Declination
Unknown
Sunlit
N/A
Visualization observer readout
Local Sidereal Time
05:37:09
Azimuth
Unknown
Elevation
Unknown
Doppler factor
Unknown
Orbital elements
Apogee altitude
729.051 km
Perigee altitude
711.311 km
Semi-major axis
7,098.318 km
Eccentricity
0.00125
Inclination
99.0936°
RAAN
175.5821°
Arg. of periapsis
141.243°
True anomaly
218.87616°
Mean anomaly
218.9661°
Eccentric anomaly
218.92112°
Mean motion
3.62919 °/min
Orbital period
99.2 mins
BSTAR
0.0055271
Loading maneuver chart data...
Computing Atmospheric mass density...
Loading historical data...
Loading historical data...
Loading historical data...
Loading historical data...
Loading historical data...
Loading historical data...
Loading historical data...

Documentation

Showing up to 5 results
|